• In Schweiz
  • Länderverzeichnis
  • Für 7 Tage
  • Wassertemperatur
  • Satellitenkarten
  • Wetterkarte
  • Widgets
  • user-avatar
    Anmelden

    Stündliche Wetter Serednya

    Heute, 18 August, Samstag

    Zeit Temperatur Niederschläge Wind Luftdruck Luftfeuchtigkeit
    00:00 +20°C° 0 mm 1 m/S 742 mmHg 88%
    01:00 +20°C° 0 mm 1 m/S 742 mmHg 88%
    02:00 +17°C° 0 mm 0 m/S 742 mmHg 90%
    03:00 +17°C° 0,6 mm 0 m/S 742 mmHg 90%
    04:00 +17°C° 0,6 mm 0 m/S 742 mmHg 91%
    05:00 +17°C° 0,6 mm 0 m/S 742 mmHg 91%
    06:00 +18°C° 0 mm 0 m/S 742 mmHg 87%
    07:00 +22°C° 0 mm 1 m/S 742 mmHg 83%
    08:00 +23°C° 0 mm 1 m/S 743 mmHg 79%
    09:00 +25°C° 0,2 mm 1 m/S 743 mmHg 73%
    10:00 +26°C° 0,2 mm 1 m/S 743 mmHg 67%
    11:00 +28°C° 0,2 mm 1 m/S 743 mmHg 62%
    12:00 +28°C° 0,5 mm 1 m/S 743 mmHg 57%
    13:00 +29°C° 0,5 mm 1 m/S 743 mmHg 53%
    14:00 +30°C° 0,5 mm 1 m/S 743 mmHg 49%
    15:00 +30°C° 0 mm 1 m/S 742 mmHg 52%
    16:00 +29°C° 0 mm 1 m/S 742 mmHg 56%
    17:00 +29°C° 0 mm 1 m/S 742 mmHg 59%
    18:00 +27°C° 0 mm 1 m/S 742 mmHg 62%
    19:00 +26°C° 0 mm 1 m/S 742 mmHg 66%
    20:00 +24°C° 0 mm 1 m/S 742 mmHg 69%
    21:00 +23°C° 1 mm 1 m/S 742 mmHg 74%
    22:00 +22°C° 1 mm 1 m/S 743 mmHg 80%
    23:00 +21°C° 1 mm 1 m/S 743 mmHg 85%

    Morgen, 19 August, Sonntag

    Zeit Temperatur Niederschläge Wind Luftdruck Luftfeuchtigkeit
    00:00 +20°C° 0,2 mm 1 m/S 743 mmHg 87%
    01:00 +20°C° 0,2 mm 1 m/S 743 mmHg 88%
    02:00 +20°C° 0,2 mm 1 m/S 743 mmHg 90%
    03:00 +19°C° 0,1 mm 1 m/S 743 mmHg 91%
    04:00 +19°C° 0,1 mm 1 m/S 743 mmHg 91%
    05:00 +19°C° 0,1 mm 1 m/S 743 mmHg 92%
    06:00 +19°C° 0 mm 2 m/S 743 mmHg 89%
    07:00 +20°C° 0 mm 2 m/S 743 mmHg 87%
    08:00 +21°C° 0 mm 2 m/S 743 mmHg 84%
    09:00 +24°C° 0,2 mm 2 m/S 743 mmHg 78%
    10:00 +25°C° 0,2 mm 2 m/S 744 mmHg 73%
    11:00 +27°C° 0,2 mm 2 m/S 744 mmHg 67%
    12:00 +27°C° 0,2 mm 2 m/S 744 mmHg 64%
    13:00 +28°C° 0,2 mm 2 m/S 743 mmHg 60%
    14:00 +28°C° 0,2 mm 2 m/S 743 mmHg 57%
    15:00 +28°C° 0,3 mm 1 m/S 743 mmHg 58%
    16:00 +28°C° 0,3 mm 1 m/S 743 mmHg 60%
    17:00 +28°C° 0,3 mm 1 m/S 743 mmHg 61%
    18:00 +26°C° 0,1 mm 1 m/S 743 mmHg 66%
    19:00 +24°C° 0,1 mm 1 m/S 743 mmHg 71%
    20:00 +23°C° 0,1 mm 1 m/S 743 mmHg 76%
    21:00 +22°C° 0 mm 1 m/S 743 mmHg 78%
    22:00 +22°C° 0 mm 1 m/S 743 mmHg 80%
    23:00 +21°C° 0 mm 1 m/S 743 mmHg 83%

    übermorgen, 20 August, Montag

    Zeit Temperatur Niederschläge Wind Luftdruck Luftfeuchtigkeit
    00:00 +20°C° 0 mm 1 m/S 743 mmHg 85%
    01:00 +20°C° 0 mm 1 m/S 743 mmHg 87%
    02:00 +19°C° 0 mm 2 m/S 743 mmHg 90%
    03:00 +19°C° 0 mm 1 m/S 743 mmHg 91%
    04:00 +19°C° 0 mm 1 m/S 743 mmHg 92%
    05:00 +18°C° 0 mm 1 m/S 743 mmHg 92%
    06:00 +20°C° 0 mm 1 m/S 743 mmHg 88%
    07:00 +21°C° 0 mm 1 m/S 743 mmHg 83%
    08:00 +23°C° 0 mm 1 m/S 743 mmHg 78%
    09:00 +24°C° 0 mm 1 m/S 743 mmHg 73%
    10:00 +25°C° 0 mm 1 m/S 743 mmHg 67%
    11:00 +27°C° 0 mm 1 m/S 743 mmHg 61%
    12:00 +28°C° 0 mm 1 m/S 743 mmHg 59%
    13:00 +28°C° 0 mm 1 m/S 743 mmHg 56%
    14:00 +29°C° 0 mm 1 m/S 742 mmHg 53%
    15:00 +29°C° 0,1 mm 1 m/S 742 mmHg 54%
    16:00 +26°C° 0,1 mm 0 m/S 742 mmHg 56%
    17:00 +26°C° 0,1 mm 0 m/S 741 mmHg 57%
    18:00 +26°C° 0,2 mm 1 m/S 741 mmHg 62%
    19:00 +25°C° 0,2 mm 1 m/S 741 mmHg 68%
    20:00 +23°C° 0,2 mm 1 m/S 741 mmHg 73%
    21:00 +23°C° 0 mm 1 m/S 741 mmHg 75%
    22:00 +22°C° 0 mm 1 m/S 741 mmHg 77%
    23:00 +21°C° 0 mm 1 m/S 741 mmHg 79%

    21 August, Dienstag

    Zeit Temperatur Niederschläge Wind Luftdruck Luftfeuchtigkeit
    00:00 +21°C° 0 mm 1 m/S 741 mmHg 80%
    01:00 +21°C° 0 mm 1 m/S 741 mmHg 81%
    02:00 +20°C° 0 mm 1 m/S 740 mmHg 82%
    03:00 +20°C° 0 mm 1 m/S 740 mmHg 84%
    04:00 +20°C° 0 mm 1 m/S 740 mmHg 85%
    05:00 +19°C° 0 mm 2 m/S 740 mmHg 86%
    06:00 +20°C° 0 mm 2 m/S 741 mmHg 82%
    07:00 +23°C° 0 mm 2 m/S 741 mmHg 79%
    08:00 +24°C° 0 mm 2 m/S 741 mmHg 75%
    09:00 +25°C° 0,2 mm 3 m/S 741 mmHg 69%
    10:00 +27°C° 0,2 mm 3 m/S 741 mmHg 64%
    11:00 +28°C° 0,2 mm 3 m/S 741 mmHg 58%
    12:00 +28°C° 0,7 mm 3 m/S 741 mmHg 58%
    13:00 +28°C° 0,7 mm 4 m/S 741 mmHg 59%
    14:00 +28°C° 0,7 mm 4 m/S 741 mmHg 59%
    15:00 +28°C° 0,8 mm 4 m/S 741 mmHg 63%
    16:00 +27°C° 0,8 mm 4 m/S 741 mmHg 67%
    17:00 +27°C° 0,8 mm 3 m/S 741 mmHg 70%
    18:00 +25°C° 0,1 mm 3 m/S 741 mmHg 75%
    19:00 +22°C° 0,1 mm 3 m/S 741 mmHg 80%
    20:00 +20°C° 0,1 mm 3 m/S 742 mmHg 85%
    21:00 +19°C° 0 mm 3 m/S 742 mmHg 86%
    22:00 +19°C° 0 mm 3 m/S 743 mmHg 86%
    23:00 +18°C° 0 mm 3 m/S 743 mmHg 87%

    22 August, Mittwoch

    Zeit Temperatur Niederschläge Wind Luftdruck Luftfeuchtigkeit
    00:00 +17°C° 0 mm 3 m/S 743 mmHg 88%
    01:00 +16°C° 0 mm 2 m/S 743 mmHg 88%
    02:00 +16°C° 0 mm 2 m/S 744 mmHg 89%
    03:00 +15°C° 0 mm 2 m/S 744 mmHg 90%
    04:00 +15°C° 0 mm 2 m/S 744 mmHg 90%
    05:00 +14°C° 0 mm 2 m/S 745 mmHg 91%
    06:00 +15°C° 0 mm 2 m/S 745 mmHg 86%
    07:00 +16°C° 0 mm 2 m/S 746 mmHg 81%
    08:00 +17°C° 0 mm 3 m/S 746 mmHg 77%
    09:00 +19°C° 0 mm 3 m/S 746 mmHg 69%
    10:00 +20°C° 0 mm 3 m/S 746 mmHg 62%
    11:00 +22°C° 0 mm 3 m/S 747 mmHg 55%
    12:00 +22°C° 0 mm 3 m/S 747 mmHg 53%
    13:00 +24°C° 0 mm 3 m/S 746 mmHg 51%
    14:00 +24°C° 0 mm 3 m/S 746 mmHg 49%
    15:00 +24°C° 0 mm 2 m/S 746 mmHg 51%
    16:00 +24°C° 0 mm 2 m/S 746 mmHg 52%
    17:00 +24°C° 0 mm 2 m/S 746 mmHg 53%
    18:00 +21°C° 0 mm 2 m/S 746 mmHg 58%
    19:00 +19°C° 0 mm 2 m/S 747 mmHg 63%
    20:00 +17°C° 0 mm 2 m/S 747 mmHg 67%
    21:00 +16°C° 0 mm 2 m/S 747 mmHg 68%
    22:00 +16°C° 0 mm 2 m/S 747 mmHg 69%
    23:00 +15°C° 0 mm 2 m/S 747 mmHg 70%

    23 August, Donnerstag

    Zeit Temperatur Niederschläge Wind Luftdruck Luftfeuchtigkeit
    00:00 +14°C° 0 mm 2 m/S 747 mmHg 70%
    01:00 +14°C° 0 mm 2 m/S 747 mmHg 70%
    02:00 +13°C° 0 mm 2 m/S 747 mmHg 70%
    03:00 +13°C° 0 mm 2 m/S 747 mmHg 72%
    04:00 +12°C° 0 mm 2 m/S 747 mmHg 73%
    05:00 +12°C° 0 mm 2 m/S 747 mmHg 75%
    06:00 +14°C° 0 mm 2 m/S 747 mmHg 73%
    07:00 +15°C° 0 mm 2 m/S 747 mmHg 71%
    08:00 +16°C° 0 mm 3 m/S 747 mmHg 69%
    09:00 +18°C° 0 mm 3 m/S 747 mmHg 63%
    10:00 +19°C° 0 mm 3 m/S 747 mmHg 58%
    11:00 +21°C° 0 mm 3 m/S 747 mmHg 52%
    12:00 +22°C° 0 mm 3 m/S 746 mmHg 50%
    13:00 +22°C° 0 mm 3 m/S 746 mmHg 49%
    14:00 +24°C° 0 mm 3 m/S 746 mmHg 47%
    15:00 +24°C° 0 mm 3 m/S 745 mmHg 50%
    16:00 +24°C° 0 mm 3 m/S 745 mmHg 53%
    17:00 +22°C° 0 mm 3 m/S 744 mmHg 56%
    18:00 +21°C° 0 mm 3 m/S 744 mmHg 61%
    19:00 +19°C° 0 mm 3 m/S 744 mmHg 65%
    20:00 +17°C° 0 mm 3 m/S 744 mmHg 70%
    21:00 +16°C° 0 mm 3 m/S 744 mmHg 70%
    22:00 +16°C° 0 mm 3 m/S 744 mmHg 71%
    23:00 +14°C° 0 mm 3 m/S 743 mmHg 71%
    Mehr zeigen